Flag for U.S.A. Weather past 2 weeks in Bozeman, Montana, U.S.A.

Now
43 °F

Overcast.


Feels Like: 41 °F
Forecast: 35 / 44 °F
Wind: 3 mph from North

Location: Gallatin Field

Current Time: Apr 25, 2015 at 11:45:19 PM

Latest Report: Apr 25, 2015 at 10:56 PM


Visibility: 10 mi

Pressure: 29.86 "Hg

Humidity: 74%

Dew point: 35 °F

Location of BozemanLocation

Historic Weather in Bozeman — Graph

°F

Bozeman temperature yesterday

Maximum temperature yesterday: 60 °F (at 1:56 PM)
Minimum temperature yesterday: 36 °F (at 5:56 AM)
Average temperature yesterday: 46 °F

Past Weeks' High & Low Weather Summary

 TemperatureHumidityPressure
High71 °F (Apr 22, 3:56 PM)96% (Apr 14, 5:56 PM)30.48 "Hg (Apr 14, 5:56 PM)
Low13 °F (Apr 16, 5:56 AM)14% (Apr 13, 3:56 PM)29.54 "Hg (Apr 24, 1:56 PM)
Average44 °F60%29.96 "Hg
* Reported Apr 10 10:56 PM — Apr 25 10:56 PM, Bozeman, Weather by CustomWeather, © 2015

Note: Actual official high and low records may vary slightly from our data, if they occured in-between our weather recording intervals... More about our weather records

Advertising

Bozeman weather history for previous 24 hours

 ConditionsComfort  
Time TempWeatherWind HumidityBarometerVisibility
10:56 PM
Sat, Apr 25
43 °FOvercast.3 mph74%29.86 "Hg10 mi
9:56 PM43 °FOvercast.3 mph76%29.86 "Hg10 mi
8:56 PM44 °FOvercast.5 mph68%29.85 "Hg10 mi
7:56 PM44 °FBroken clouds.10 mph65%29.83 "Hg10 mi
6:56 PM49 °FPartly sunny.No wind48%29.81 "Hg10 mi
5:56 PM50 °FPassing clouds.3 mph43%29.81 "Hg10 mi
4:56 PM47 °FScattered clouds.3 mph54%29.82 "Hg10 mi
3:56 PM48 °FSunny.No wind52%29.82 "Hg10 mi
2:56 PM45 °FOvercast.3 mph63%29.85 "Hg10 mi
1:56 PM43 °FMostly cloudy.6 mph68%29.85 "Hg10 mi
12:56 PM42 °FMore clouds than sun.No wind73%29.86 "Hg10 mi
12:04 PM39 °FMostly cloudy.No wind86%29.83 "Hg10 mi
11:56 AM39 °FLight rain. Low clouds.No wind82%29.87 "Hg10 mi
10:56 AM36 °FLight snow. Fog.3 mph92%29.88 "Hg3 mi
9:56 AM36 °FLight rain. Overcast.6 mph89%29.87 "Hg8 mi
8:56 AM35 °FMostly cloudy.5 mph92%29.87 "Hg10 mi
7:56 AM35 °FMostly cloudy.7 mph92%29.85 "Hg10 mi
6:56 AM33 °FLight snow. Fog.8 mph96%29.84 "Hg3 mi
5:56 AM33 °FLight snow. Fog.7 mph92%29.82 "Hg3 mi
4:56 AM35 °FLight snow. Fog.8 mph92%29.78 "Hg6 mi
3:56 AM35 °FLight rain. Low clouds.5 mph92%29.77 "Hg9 mi
2:56 AM33 °FLight snow. Fog.3 mph96%29.76 "Hg5 mi
1:56 AM35 °FLight rain. Mostly cloudy.7 mph96%29.74 "Hg7 mi
12:56 AM35 °FLight rain. Overcast.8 mph92%29.75 "Hg10 mi
11:56 PM
Fri, Apr 24
37 °FLight rain. Mostly cloudy.13 mph89%29.74 "Hg10 mi
Weather by CustomWeather, © 2015

See weather overviewHow to use our weather pages